Other Public Products
Issued by NWS Charleston, SC

Current Version | Previous Version | Graphics & Text | Print | Product List | Glossary On
Versions: 1 2 3 4 5 6 7 8 9 10 11 12 13 14 15 16 17 18 19 20 21 22 23 24 25 26 27 28 29 30 31 32 33 34 35 36 37 38 39 40 41 42 43 44 45 46 47 48 49 50
158
FPUS82 KCHS 241527
OPUCHS

TEST...KCHS/KSAV Gateway Observations...TEST
National Weather Service Charleston SC
1100 AM EDT THU MAY 24 2018

NOTE: "fair" indicates few or no clouds below 12,000 feet with no
significant weather and/or obstructions to visibility.

SCZ050-WAZ558-NCZ071-TXZ119-213-PAZ071-DCZ001-FLZ074-172-MI076-
NYZ176-178-MAZ016-IL014-TNZ027-NJZ106-GAZ044-MD014-241600-

...Gateway Observations for Charleston International...

CITY           SKY/WX    TMP DP  RH WIND       PRES   REMARKS
Chas Airport   PTSUNNY   85  72  65 VRB3      30.11S HX  91
Seattle        CLOUDY    55  51  86 SW10      30.05R FOG
Charlotte      CLOUDY    75  70  84 NE10G20   30.18R
Dallas DFW     MOSUNNY   81  70  69 S10       30.08S
Dallas Love    MOSUNNY   81  70  69 S6        30.09S
Philladelphia  FAIR      77  40  26 N12       30.17R
Wash National  FAIR      79  49  34 NE5       30.19S
Baltimore      FAIR      79  52  38 N9        30.18R
Miami          CLOUDY    82  73  74 SE13      30.08S
Detroit        FAIR      78  51  38 SW3       30.24S
Newark         FAIR      77  40  26 VRB5G21   30.14R
Laguardia      FAIR      75  36  24 N13       30.13R
J F K          FAIR      76  35  22 N16       30.14R
Boston Logan   FAIR      59  53  80 E9        30.12R
Ft. Lauderdale PTSUNNY   82  76  81 E13       30.08R
Chicago O`Hare FAIR      77  53  43 S9        30.18F
Chicago Midway FAIR      78  55  44 S8        30.19F
Houston Bush   FAIR      80  72  76 E3        30.07S
Houston Hobby  FAIR      81  75  82 CALM      30.06S
Nashville      PTSUNNY   82  66  58 NE5       30.14F
Atlanta        PTSUNNY   78  68  71 E6        30.13S

$$

GAZ044-118-TXZ119-213-NCZ071-DCZ001-MDZ014-506-PAZ021-071-NJZ106-
NYZ176-178-MAZ106-OHZ011-021-055-MIZ076-KYZ091-ILZ014-INZ047-
MNZ060-ONZ431-241600-

...Gateway Observations for Savannah International...

CITY           SKY/WX    TMP DP  RH WIND       PRES   REMARKS
Savannah Arpt  PTSUNNY   81  71  71 SW3       30.11S
Atlanta        PTSUNNY   78  68  71 E6        30.13S
Charlotte      CLOUDY    75  70  84 NE10G20   30.18R
Dallas DFW     MOSUNNY   81  70  69 S10       30.08S
Houston Bush   FAIR      80  72  76 E3        30.07S
Wash National  FAIR      79  49  34 NE5       30.19S
Wash Dulles    FAIR      76  53  44 N9        30.20S
Baltimore      FAIR      79  52  38 N9        30.18R
Philadelphia   FAIR      77  40  26 N12       30.17R
Newark         FAIR      77  40  26 VRB5G21   30.14R
Laguardia      FAIR      75  36  24 N13       30.13R
J F K          FAIR      76  35  22 N16       30.14R
Boston         FAIR      59  53  80 E9        30.12R
Pittsburg      FAIR      72  53  51 VRB6      30.24S
Akron          FAIR      73  49  42 VRB3      30.25F
Cleveland      FAIR      75  53  46 NE5       30.26S
Cincinnati     FAIR      73  56  54 E8        30.22F
Columbus       FAIR      73  54  50 MISG      30.23S
Detroit        FAIR      78  51  38 SW3       30.24S
Chicago O`Hare FAIR      77  53  43 S9        30.18F
Minneapolis    PTSUNNY   81  67  62 S12G18    30.03S
Indianapolis   FAIR      75  55  49 SE8       30.21F
Toronto Canada SUNNY     72  50  46 SE7       30.17F

$$




USA.gov is the U.S. government's official web portal to all federal, state and local government web resources and services.